EW8494 Weather Reports


Display with metric or nautical units.
time (UTC)temp
F
wind
direction
speed
MPH
gust
MPH
rain 1hr
in
rain 24hr
in
rain mn
in
humidity
%
barometer
mb
20260502164020 67 23 3.0 11.0 0.00 0.00 0.00 37 1013.4
20260502163040 67 0 4.0 11.0 0.00 0.00 0.00 39 1013.3
20260502162020 66 0 4.0 9.0 0.00 0.00 0.00 43 1013.3
20260502161021 65 23 6.0 11.0 0.00 0.00 0.00 41 1013.3
20260502151020 61 23 6.0 9.0 0.00 0.00 0.00 47 1012.9
20260502123020 56 0 7.0 10.0 0.00 0.00 0.00 54 1012.6
20260502122020 57 0 5.0 8.0 0.00 0.00 0.00 54 1012.7
20260502121020 56 0 6.0 10.0 0.00 0.00 0.00 54 1012.6
20260502115019 57 23 4.0 6.0 0.00 0.00 0.00 53 1012.5
20260502114020 57 23 6.0 9.0 0.00 0.00 0.00 51 1012.5
20260502113019 58 0 5.0 9.0 0.00 0.00 0.00 49 1012.6
20260502112019 59 23 4.0 6.0 0.00 0.00 0.00 46 1012.6
20260502111019 60 23 4.0 7.0 0.00 0.00 0.00 44 1012.6
20260502110020 60 23 5.0 7.0 0.00 0.00 0.00 45 1012.5
20260502105040 60 23 4.0 8.0 0.00 0.00 0.00 44 1012.5
20260502104020 59 23 4.0 7.0 0.00 0.00 0.00 46 1012.5
20260502103039 59 45 2.0 4.0 0.00 0.00 0.00 46 1012.6
20260502102100 59 23 3.0 4.0 0.00 0.00 0.00 47 1012.6
20260502101019 58 23 4.0 7.0 0.00 0.00 0.00 48 1012.5
20260502091020 57 0 7.0 10.0 0.00 0.00 0.00 52 1012.5
20260502071019 61 0.0 0.0 0.00 0.00 0.00 45 1012.1
20260502070019 61 0.0 3.0 0.00 0.00 0.00 46 1012.2
20260502065019 61 0.0 0.0 0.00 0.00 0.00 46 1012.2
20260502064019 62 0.0 0.0 0.00 0.00 0.00 46 1012.1
20260502063019 63 0.0 0.0 0.00 0.00 0.00 44 1012.3
20260502062019 66 0.0 0.0 0.00 0.00 0.00 40 1012.2
20260502061039 66 45 2.0 4.0 0.00 0.00 0.00 36 1012.0
20260502060019 66 45 3.0 6.0 0.00 0.00 0.00 37 1012.0
20260502055019 65 23 3.0 5.0 0.00 0.00 0.00 39 1012.0
20260502054018 66 45 2.0 3.0 0.00 0.00 0.00 37 1012.1
20260502053019 67 23 3.0 4.0 0.00 0.00 0.00 36 1012.0
20260502052019 67 45 2.0 4.0 0.00 0.00 0.00 35 1012.1
20260502051039 68 45 2.0 4.0 0.00 0.00 0.00 34 1012.0
20260502050019 68 45 2.0 4.0 0.00 0.00 0.00 34 1012.0
20260502045019 69 45 2.0 4.0 0.00 0.00 0.00 33 1012.0
20260502044020 69 45 2.0 3.0 0.00 0.00 0.00 33 1012.1
20260502043019 68 45 2.0 3.0 0.00 0.00 0.00 34 1012.1
20260502042019 68 45 2.0 3.0 0.00 0.00 0.00 35 1012.0
20260502041019 68 45 2.0 3.0 0.00 0.00 0.00 35 1011.9
20260502040100 69 45 2.0 3.0 0.00 0.00 0.00 33 1011.8
20260502035019 69 45 2.0 4.0 0.00 0.00 0.00 32 1011.9
20260502034024 70 45 2.0 4.0 0.00 0.00 0.00 31 1011.8
20260502033019 70 45 1.0 2.0 0.00 0.00 0.00 32 1011.7
20260502032019 71 45 2.0 3.0 0.00 0.00 0.00 31 1011.6
20260502031019 72 45 2.0 3.0 0.00 0.00 0.00 28 1011.5
20260502030019 73 45 2.0 4.0 0.00 0.00 0.00 27 1011.4
20260502025019 74 23 3.0 5.0 0.00 0.00 0.00 24 1011.4
20260502024019 75 45 3.0 5.0 0.00 0.00 0.00 24 1011.3
20260502023018 75 45 3.0 5.0 0.00 0.00 0.00 24 1011.3
20260502022039 75 45 2.0 4.0 0.00 0.00 0.00 25 1011.3
20260502021019 75 23 2.0 4.0 0.00 0.00 0.00 30 1011.3
20260502020019 76 23 3.0 4.0 0.00 0.00 0.00 29 1011.4
20260502015039 77 23 2.0 4.0 0.00 0.00 0.00 24 1011.5
20260502014019 77 23 2.0 3.0 0.00 0.00 0.00 25 1011.6
20260502013019 78 23 2.0 4.0 0.00 0.00 0.00 26 1011.6
20260502012039 79 23 3.0 6.0 0.00 0.00 0.00 24 1011.7
20260502011019 79 23 3.0 6.0 0.00 0.00 0.00 21 1011.8
20260502010018 80 23 4.0 8.0 0.00 0.00 0.00 18 1011.9
20260502005019 80 23 4.0 9.0 0.00 0.00 0.00 18 1011.9
20260502004018 80 0 6.0 10.0 0.00 0.00 0.00 20 1012.0
20260502003018 80 0 6.0 10.0 0.00 0.00 0.00 19 1012.0
20260502002019 80 23 5.0 9.0 0.00 0.00 0.00 20 1012.1
20260502001019 80 23 5.0 9.0 0.00 0.00 0.00 19 1012.1
20260502000039 81 0 5.0 9.0 0.00 0.00 0.00 16 1012.3
20260501235019 82 23 4.0 8.0 0.00 0.00 0.00 18 1012.3
20260501234018 82 0 5.0 9.0 0.00 0.00 0.00 15 1012.5
20260501233018 82 0 5.0 9.0 0.00 0.00 0.00 17 1012.6
20260501232020 82 0 5.0 10.0 0.00 0.00 0.00 16 1012.7
20260501231020 82 0 5.0 10.0 0.00 0.00 0.00 16 1012.8
20260501230018 82 0 3.0 9.0 0.00 0.00 0.00 16 1012.8
20260501225020 82 113 3.0 8.0 0.00 0.00 0.00 16 1013.0
20260501224018 83 90 2.0 7.0 0.00 0.00 0.00 16 1013.4
20260501223038 83 45 2.0 4.0 0.00 0.00 0.00 18 1013.4
20260501222040 82 90 2.0 8.0 0.00 0.00 0.00 19 1013.5
20260501221020 82 23 2.0 5.0 0.00 0.00 0.00 17 1013.6
20260501220040 83 45 3.0 6.0 0.00 0.00 0.00 22 1013.8
20260501215019 82 90 3.0 9.0 0.00 0.00 0.00 25 1013.9
20260501214019 81 45 2.0 6.0 0.00 0.00 0.00 24 1014.1
20260501213020 80 68 2.0 4.0 0.00 0.00 0.00 21 1014.3
20260501212040 80 90 4.0 9.0 0.00 0.00 0.00 25 1014.4
20260501211018 79 135 2.0 7.0 0.00 0.00 0.00 21 1014.5
20260501210041 79 45 1.0 3.0 0.00 0.00 0.00 21 1014.8
20260501205040 79 90 3.0 7.0 0.00 0.00 0.00 21 1014.9
20260501204020 78 68 2.0 7.0 0.00 0.00 0.00 25 1015.1
20260501203020 77 23 2.0 4.0 0.00 0.00 0.00 22 1015.1
20260501202020 77 45 2.0 7.0 0.00 0.00 0.00 24 1015.3
20260501201020 77 0 1.0 4.0 0.00 0.00 0.00 26 1015.4
20260501200020 77 23 2.0 4.0 0.00 0.00 0.00 23 1015.4
20260501195020 76 23 1.0 3.0 0.00 0.00 0.00 27 1015.4
20260501194020 75 45 2.0 8.0 0.00 0.00 0.00 26 1015.4
20260501193020 75 0 3.0 5.0 0.00 0.00 0.00 27 1015.5
20260501192020 74 23 2.0 5.0 0.00 0.00 0.00 29 1015.6
20260501191020 72 270 2.0 6.0 0.00 0.00 0.00 35 1015.6
20260501190041 71 293 1.0 6.0 0.00 0.00 0.00 37 1015.9
20260501185040 70 225 1.0 2.0 0.00 0.00 0.00 40 1016.0
20260501184020 69 225 2.0 6.0 0.00 0.00 0.00 40 1016.2
20260501183020 69 225 3.0 7.0 0.00 0.00 0.00 41 1016.4
20260501182040 69 225 2.0 5.0 0.00 0.00 0.00 42 1016.3
20260501181040 68 225 3.0 5.0 0.00 0.00 0.00 39 1016.3
20260501180019 68 225 1.0 6.0 0.00 0.00 0.00 39 1016.3
20260501175019 67 203 1.0 4.0 0.00 0.00 0.00 39 1016.2
20260501174100 67 225 2.0 4.0 0.00 0.00 0.00 40 1016.3
20260501173020 66 180 1.0 3.0 0.00 0.00 0.00 42 1016.4
20260501172020 65 113 1.0 4.0 0.00 0.00 0.00 41 1016.6